Location: D�rnast
(49.6426°N, 11.9755°E)
Time: 20:33:07
(UTC+00:00)

USA 290 - Pass Details

Date: 24 January 2021
Orbit: 397 x 414 km, 73.6° (Epoch: 27 January)

Event Time Altitude Azimuth Distance (km) Brightness Sun altitude
Rises 17:27:01 0° 345° (NNW) 2,321 6.1 -14.8°
Reaches altitude 10° 17:29:20 10° 1° (N) 1,457 4.9 -15.2°
Enters shadow 17:30:28 17° 18° (NNE) 1,117 4.1 -15.4°
